status,avgMeasuredTime,avgSpeed,extID,medianMeasuredTime,TIMESTAMP,vehicleCount,_id,REPORT_ID
OK,24,71,840,24,2014-08-01T07:55:00,0,20746564,180898
OK,24,71,840,24,2014-08-01T08:00:00,0,20746895,180898
OK,24,71,840,24,2014-08-01T08:05:00,0,20747344,180898
OK,44,38,840,44,2014-08-01T08:10:00,1,20747717,180898
OK,44,38,840,44,2014-08-01T08:15:00,1,20748166,180898
OK,44,38,840,44,2014-08-01T08:20:00,0,20748615,180898
OK,32,53,840,32,2014-08-01T08:25:00,1,20749064,180898
OK,32,53,840,32,2014-08-01T08:30:00,1,20749513,180898
OK,32,53,840,32,2014-08-01T08:35:00,0,20749962,180898
OK,22,77,840,22,2014-08-01T08:40:00,1,20750411,180898
OK,22,77,840,22,2014-08-01T08:45:00,1,20750860,180898
OK,40,42,840,40,2014-08-01T08:50:00,1,20751309,180898
OK,40,42,840,40,2014-08-01T08:55:00,1,20751758,180898
OK,32,53,840,32,2014-08-01T09:00:00,1,20752207,180898
OK,31,55,840,31,2014-08-01T09:05:00,2,20752656,180898
OK,30,57,840,30,2014-08-01T09:10:00,1,20753105,180898
OK,30,57,840,30,2014-08-01T09:15:00,0,20753554,180898
OK,30,57,840,30,2014-08-01T09:20:00,0,20754003,180898
OK,32,53,840,32,2014-08-01T09:25:00,1,20754452,180898
OK,32,53,840,32,2014-08-01T09:30:00,3,20754901,180898
OK,34,50,840,34,2014-08-01T09:35:00,4,20755350,180898
OK,65,26,840,65,2014-08-01T09:40:00,3,20755799,180898
OK,65,26,840,65,2014-08-01T09:45:00,0,20756248,180898
OK,65,26,840,65,2014-08-01T09:50:00,0,20756697,180898
OK,32,53,840,32,2014-08-01T09:55:00,1,20757146,180898
OK,34,50,840,34,2014-08-01T10:00:00,2,20757595,180898
OK,37,46,840,37,2014-08-01T10:05:00,1,20758044,180898
OK,37,46,840,37,2014-08-01T10:10:00,0,20758493,180898
OK,44,38,840,44,2014-08-01T10:15:00,1,20758942,180898
OK,44,38,840,44,2014-08-01T10:20:00,1,20759391,180898
OK,44,38,840,44,2014-08-01T10:25:00,0,20759840,180898
OK,44,38,840,44,2014-08-01T10:30:00,0,20760289,180898
OK,44,38,840,44,2014-08-01T10:35:00,0,20760738,180898
OK,44,38,840,44,2014-08-01T10:40:00,0,20761187,180898
OK,32,53,840,32,2014-08-01T10:45:00,1,20761636,180898
OK,32,53,840,32,2014-08-01T10:50:00,1,20762085,180898
OK,35,48,840,35,2014-08-01T10:55:00,1,20762534,180898
OK,37,46,840,37,2014-08-01T11:00:00,2,20762983,180898
OK,40,42,840,40,2014-08-01T11:05:00,2,20763432,180898
OK,40,42,840,40,2014-08-01T11:10:00,1,20763881,180898
OK,47,36,840,47,2014-08-01T11:15:00,1,20764329,180898
OK,38,45,840,38,2014-08-01T11:20:00,2,20764778,180898
OK,29,59,840,29,2014-08-01T11:25:00,1,20765227,180898
OK,29,59,840,29,2014-08-01T11:30:00,0,20765676,180898
OK,31,55,840,31,2014-08-01T11:35:00,1,20766125,180898
OK,31,55,840,31,2014-08-01T11:40:00,1,20766574,180898
OK,31,55,840,31,2014-08-01T11:45:00,0,20767023,180898
OK,31,55,840,31,2014-08-01T11:50:00,0,20767472,180898
OK,34,50,840,34,2014-08-01T11:55:00,4,20767921,180898
OK,32,53,840,32,2014-08-01T12:00:00,4,20768370,180898
OK,33,51,840,33,2014-08-01T12:05:00,2,20768819,180898
OK,38,45,840,38,2014-08-01T12:10:00,1,20769268,180898
OK,28,61,840,28,2014-08-01T12:15:00,0,20769717,180898
OK,28,61,840,28,2014-08-01T12:20:00,0,20770166,180898
OK,28,61,840,28,2014-08-01T12:25:00,1,20770615,180898
OK,27,63,840,27,2014-08-01T12:30:00,2,20771064,180898
OK,27,63,840,27,2014-08-01T12:35:00,1,20771513,180898
OK,27,63,840,27,2014-08-01T12:40:00,0,20771962,180898
OK,27,63,840,27,2014-08-01T12:45:00,0,20772411,180898
OK,27,63,840,27,2014-08-01T12:50:00,0,20772860,180898
OK,27,63,840,27,2014-08-01T12:55:00,0,20773309,180898
OK,27,63,840,27,2014-08-01T13:00:00,0,20773758,180898
OK,27,63,840,27,2014-08-01T13:05:00,0,20774207,180898
OK,27,63,840,27,2014-08-01T13:10:00,0,20774656,180898
OK,27,63,840,27,2014-08-01T13:15:00,0,20775105,180898
OK,27,63,840,27,2014-08-01T13:20:00,0,20775554,180898
OK,27,63,840,27,2014-08-01T13:25:00,0,20776003,180898
OK,27,63,840,27,2014-08-01T13:30:00,0,20776452,180898
OK,27,63,840,27,2014-08-01T13:35:00,0,20776901,180898
OK,27,63,840,27,2014-08-01T13:40:00,0,20777350,180898
OK,27,63,840,27,2014-08-01T13:45:00,0,20777799,180898
OK,27,63,840,27,2014-08-01T13:50:00,0,20778248,180898
OK,27,63,840,27,2014-08-01T13:55:00,0,20778697,180898
OK,31,55,840,31,2014-08-01T14:00:00,1,20779146,180898
OK,61,28,840,61,2014-08-01T14:05:00,2,20779595,180898
OK,92,18,840,92,2014-08-01T14:10:00,1,20780044,180898
OK,25,68,840,25,2014-08-01T14:15:00,1,20780493,180898
OK,25,68,840,25,2014-08-01T14:20:00,1,20780942,180898
OK,25,68,840,25,2014-08-01T14:25:00,0,20781391,180898
OK,25,68,840,25,2014-08-01T14:30:00,0,20781840,180898
OK,25,68,840,25,2014-08-01T14:35:00,0,20782289,180898
OK,25,68,840,25,2014-08-01T14:40:00,0,20782738,180898
OK,25,68,840,25,2014-08-01T14:45:00,0,20783187,180898
OK,63,27,840,63,2014-08-01T14:50:00,1,20783636,180898
OK,63,27,840,63,2014-08-01T14:55:00,1,20784085,180898
OK,27,63,840,27,2014-08-01T15:00:00,1,20784534,180898
OK,27,63,840,27,2014-08-01T15:05:00,1,20784983,180898
OK,27,63,840,27,2014-08-01T15:10:00,1,20785432,180898
OK,27,63,840,27,2014-08-01T15:15:00,1,20785881,180898
OK,27,63,840,27,2014-08-01T15:20:00,1,20786330,180898
OK,27,63,840,27,2014-08-01T15:25:00,0,20786779,180898
OK,27,63,840,27,2014-08-01T15:30:00,0,20787228,180898
OK,74,23,840,74,2014-08-01T15:35:00,1,20787677,180898
OK,53,32,840,53,2014-08-01T15:40:00,2,20788126,180898
OK,28,61,840,28,2014-08-01T15:45:00,2,20788575,180898
OK,24,71,840,24,2014-08-01T15:50:00,1,20789024,180898
OK,27,63,840,27,2014-08-01T15:55:00,1,20789473,180898
OK,27,63,840,27,2014-08-01T16:00:00,1,20789922,180898
OK,37,46,840,37,2014-08-01T16:05:00,1,20790371,180898
OK,37,46,840,37,2014-08-01T16:10:00,1,20790820,180898
OK,37,46,840,37,2014-08-01T16:15:00,0,20791269,180898
OK,32,53,840,32,2014-08-01T16:20:00,1,20791718,180898
OK,32,53,840,32,2014-08-01T16:25:00,1,20792167,180898
OK,32,53,840,32,2014-08-01T16:30:00,0,20792616,180898
OK,32,53,840,32,2014-08-01T16:35:00,0,20793065,180898
OK,32,53,840,32,2014-08-01T16:40:00,0,20793514,180898
OK,32,53,840,32,2014-08-01T16:45:00,0,20793963,180898
OK,32,53,840,32,2014-08-01T16:50:00,0,20794412,180898
OK,32,53,840,32,2014-08-01T16:55:00,0,20794861,180898
OK,28,61,840,28,2014-08-01T17:00:00,3,20795310,180898
OK,27,63,840,27,2014-08-01T17:05:00,2,20795759,180898
OK,28,61,840,28,2014-08-01T17:10:00,1,20796208,180898
OK,28,61,840,28,2014-08-01T17:15:00,0,20796657,180898
OK,28,61,840,28,2014-08-01T17:20:00,0,20797106,180898
OK,28,61,840,28,2014-08-01T17:25:00,0,20797555,180898
OK,28,61,840,28,2014-08-01T17:30:00,0,20798004,180898
OK,28,61,840,28,2014-08-01T17:35:00,0,20798453,180898
OK,28,61,840,28,2014-08-01T17:40:00,0,20798902,180898
OK,28,61,840,28,2014-08-01T17:45:00,0,20799351,180898
OK,36,47,840,36,2014-08-01T17:50:00,1,20799800,180898
OK,36,47,840,36,2014-08-01T17:55:00,1,20800249,180898
OK,34,50,840,34,2014-08-01T18:00:00,1,20800698,180898
OK,34,50,840,34,2014-08-01T18:05:00,0,20801147,180898
OK,34,50,840,34,2014-08-01T18:10:00,0,20801596,180898
OK,34,50,840,34,2014-08-01T18:15:00,0,20802045,180898
OK,34,50,840,34,2014-08-01T18:20:00,0,20802494,180898
OK,34,50,840,34,2014-08-01T18:25:00,0,20802943,180898
OK,34,50,840,34,2014-08-01T18:30:00,0,20803392,180898
OK,34,50,840,34,2014-08-01T18:35:00,0,20803841,180898
OK,34,50,840,34,2014-08-01T18:40:00,0,20804290,180898
OK,34,50,840,34,2014-08-01T18:45:00,0,20804739,180898
OK,34,50,840,34,2014-08-01T18:50:00,0,20805188,180898
OK,34,50,840,34,2014-08-01T18:55:00,0,20805637,180898
OK,34,50,840,34,2014-08-01T19:00:00,0,20806086,180898
OK,34,50,840,34,2014-08-01T19:05:00,0,20806535,180898
OK,34,50,840,34,2014-08-01T19:10:00,0,20806984,180898
OK,34,50,840,34,2014-08-01T19:15:00,0,20807433,180898
OK,34,50,840,34,2014-08-01T19:20:00,0,20807882,180898
OK,34,50,840,34,2014-08-01T19:25:00,0,20808331,180898
OK,34,50,840,34,2014-08-01T19:30:00,0,20808780,180898
OK,34,50,840,34,2014-08-01T19:35:00,0,20809229,180898
OK,34,50,840,34,2014-08-01T19:40:00,0,20809678,180898
OK,34,50,840,34,2014-08-01T19:45:00,0,20810127,180898
OK,34,50,840,34,2014-08-01T19:50:00,0,20810576,180898
OK,34,50,840,34,2014-08-01T19:55:00,0,20811025,180898
OK,34,50,840,34,2014-08-01T22:00:00,0,20816754,180898
OK,34,50,840,34,2014-08-01T22:05:00,0,20817203,180898
OK,34,50,840,34,2014-08-02T00:00:00,0,20823193,180898
OK,34,50,840,34,2014-08-02T00:05:00,0,20823642,180898
OK,34,50,840,34,2014-08-02T00:10:00,0,20824091,180898
OK,34,50,840,34,2014-08-02T00:15:00,0,20824540,180898
OK,34,50,840,34,2014-08-02T00:20:00,0,20824989,180898
OK,34,50,840,34,2014-08-02T00:25:00,0,20825438,180898
OK,34,50,840,34,2014-08-02T00:30:00,0,20825887,180898
OK,34,50,840,34,2014-08-02T00:35:00,0,20826336,180898
OK,34,50,840,34,2014-08-02T00:40:00,0,20826785,180898
OK,34,50,840,34,2014-08-02T00:45:00,0,20827234,180898
OK,34,50,840,34,2014-08-02T00:50:00,0,20827683,180898
OK,34,50,840,34,2014-08-02T00:55:00,0,20828132,180898
OK,34,50,840,34,2014-08-02T01:00:00,0,20828581,180898
OK,34,50,840,34,2014-08-02T01:05:00,0,20829030,180898
OK,34,50,840,34,2014-08-02T01:10:00,0,20829479,180898
OK,34,50,840,34,2014-08-02T01:15:00,0,20829928,180898
OK,34,50,840,34,2014-08-02T01:20:00,0,20830377,180898
OK,34,50,840,34,2014-08-02T01:25:00,0,20830826,180898
OK,34,50,840,34,2014-08-02T01:30:00,0,20831275,180898
OK,34,50,840,34,2014-08-02T01:35:00,0,20831724,180898
OK,34,50,840,34,2014-08-02T01:40:00,0,20832173,180898
OK,34,50,840,34,2014-08-02T01:45:00,0,20832622,180898
OK,34,50,840,34,2014-08-02T01:50:00,0,20833071,180898
OK,34,50,840,34,2014-08-02T01:55:00,0,20833520,180898
OK,34,50,840,34,2014-08-02T02:00:00,0,20833969,180898
OK,34,50,840,34,2014-08-02T02:05:00,0,20834418,180898
OK,34,50,840,34,2014-08-02T02:10:00,0,20834867,180898
OK,34,50,840,34,2014-08-02T02:15:00,0,20835316,180898
OK,34,50,840,34,2014-08-02T02:20:00,0,20835765,180898
OK,34,50,840,34,2014-08-02T02:25:00,0,20836214,180898
OK,34,50,840,34,2014-08-02T02:30:00,0,20836663,180898
OK,34,50,840,34,2014-08-02T02:35:00,0,20837112,180898
OK,34,50,840,34,2014-08-02T02:40:00,0,20837561,180898
OK,34,50,840,34,2014-08-02T02:45:00,0,20838010,180898
OK,34,50,840,34,2014-08-02T02:50:00,0,20838459,180898
OK,34,50,840,34,2014-08-02T02:55:00,0,20838908,180898
OK,34,50,840,34,2014-08-02T03:00:00,0,20839357,180898
OK,34,50,840,34,2014-08-02T03:05:00,0,20839806,180898
OK,34,50,840,34,2014-08-02T03:10:00,0,20840255,180898
OK,34,50,840,34,2014-08-02T03:15:00,0,20840704,180898
OK,34,50,840,34,2014-08-02T03:20:00,0,20841153,180898
OK,34,50,840,34,2014-08-02T03:25:00,0,20841602,180898
OK,34,50,840,34,2014-08-02T03:30:00,0,20842051,180898
OK,34,50,840,34,2014-08-02T03:35:00,0,20842500,180898
OK,34,50,840,34,2014-08-02T03:40:00,0,20842949,180898
OK,34,50,840,34,2014-08-02T03:45:00,0,20843398,180898
OK,34,50,840,34,2014-08-02T03:50:00,0,20843847,180898
OK,34,50,840,34,2014-08-02T03:55:00,0,20844296,180898
OK,34,50,840,34,2014-08-02T04:50:00,0,20848007,180898
OK,34,50,840,34,2014-08-02T06:00:00,0,20851750,180898
OK,34,50,840,34,2014-08-02T06:05:00,0,20852199,180898
OK,34,50,840,34,2014-08-02T06:10:00,0,20852648,180898
OK,34,50,840,34,2014-08-02T06:15:00,0,20853097,180898
OK,34,50,840,34,2014-08-02T06:20:00,0,20853546,180898
OK,34,50,840,34,2014-08-02T06:25:00,0,20853995,180898
OK,34,50,840,34,2014-08-02T06:30:00,0,20854444,180898
OK,34,50,840,34,2014-08-02T06:35:00,0,20854893,180898
OK,34,50,840,34,2014-08-02T06:40:00,0,20855342,180898
OK,34,50,840,34,2014-08-02T06:45:00,0,20855791,180898
OK,34,50,840,34,2014-08-02T06:50:00,0,20856240,180898
OK,34,50,840,34,2014-08-02T06:55:00,0,20856689,180898
OK,34,50,840,34,2014-08-02T07:00:00,0,20857138,180898
OK,34,50,840,34,2014-08-02T07:05:00,0,20857587,180898
OK,34,50,840,34,2014-08-02T07:10:00,0,20858036,180898
OK,34,50,840,34,2014-08-02T07:15:00,0,20858485,180898
OK,34,50,840,34,2014-08-02T07:20:00,0,20858934,180898
OK,34,50,840,34,2014-08-02T07:25:00,0,20859383,180898
OK,34,50,840,34,2014-08-02T07:30:00,0,20859832,180898
OK,34,50,840,34,2014-08-02T07:35:00,0,20860281,180898
OK,34,50,840,34,2014-08-02T07:40:00,0,20860730,180898
OK,34,50,840,34,2014-08-02T07:45:00,0,20861179,180898
OK,34,50,840,34,2014-08-02T07:50:00,0,20861628,180898
OK,34,50,840,34,2014-08-02T07:55:00,0,20862077,180898
OK,34,50,840,34,2014-08-02T08:00:00,0,20862526,180898
OK,34,50,840,34,2014-08-02T08:05:00,0,20862975,180898
OK,34,50,840,34,2014-08-02T08:10:00,0,20863424,180898
OK,34,50,840,34,2014-08-02T08:15:00,0,20863873,180898
OK,34,50,840,34,2014-08-02T08:20:00,0,20864322,180898
OK,34,50,840,34,2014-08-02T08:25:00,0,20864771,180898
OK,34,50,840,34,2014-08-02T08:30:00,0,20865220,180898
OK,34,50,840,34,2014-08-02T08:35:00,0,20865669,180898
OK,34,50,840,34,2014-08-02T08:40:00,0,20866118,180898
OK,34,50,840,34,2014-08-02T08:45:00,0,20866567,180898
OK,34,50,840,34,2014-08-02T08:50:00,0,20867016,180898
OK,34,50,840,34,2014-08-02T08:55:00,0,20867465,180898
OK,34,50,840,34,2014-08-02T09:00:00,0,20867914,180898
OK,55,31,840,55,2014-08-02T09:05:00,1,20868363,180898
OK,55,31,840,55,2014-08-02T09:10:00,1,20868812,180898
OK,55,31,840,55,2014-08-02T09:15:00,0,20869261,180898
OK,55,31,840,55,2014-08-02T09:20:00,0,20869710,180898
OK,88,19,840,88,2014-08-02T09:25:00,1,20870159,180898
OK,92,18,840,92,2014-08-02T09:30:00,2,20870608,180898
OK,62,27,840,62,2014-08-02T09:35:00,2,20871057,180898
OK,32,53,840,32,2014-08-02T09:40:00,2,20871506,180898
OK,35,48,840,35,2014-08-02T09:45:00,1,20871955,180898
OK,35,48,840,35,2014-08-02T09:50:00,0,20872404,180898
OK,35,48,840,35,2014-08-02T09:55:00,0,20872853,180898
OK,35,48,840,35,2014-08-02T10:00:00,0,20873302,180898
OK,27,63,840,27,2014-08-02T10:05:00,1,20873751,180898
OK,27,63,840,27,2014-08-02T10:10:00,1,20874200,180898
OK,25,68,840,25,2014-08-02T10:15:00,2,20874649,180898
OK,25,68,840,25,2014-08-02T10:20:00,2,20875098,180898
OK,30,57,840,30,2014-08-02T10:25:00,1,20875547,180898
OK,30,57,840,30,2014-08-02T10:30:00,1,20875996,180898
OK,30,57,840,30,2014-08-02T10:35:00,0,20876445,180898
OK,31,55,840,31,2014-08-02T10:40:00,1,20876894,180898
OK,31,55,840,31,2014-08-02T10:45:00,1,20877343,180898
OK,77,22,840,77,2014-08-02T10:50:00,1,20877792,180898
OK,58,29,840,58,2014-08-02T10:55:00,2,20878241,180898
OK,39,43,840,39,2014-08-02T11:00:00,1,20878690,180898
OK,39,43,840,39,2014-08-02T11:05:00,0,20879139,180898
OK,39,43,840,39,2014-08-02T11:10:00,0,20879588,180898
OK,39,43,840,39,2014-08-02T11:15:00,0,20880037,180898
OK,39,43,840,39,2014-08-02T11:20:00,0,20880486,180898
OK,39,43,840,39,2014-08-02T11:25:00,0,20880935,180898
OK,39,43,840,39,2014-08-02T11:30:00,0,20881384,180898
OK,39,43,840,39,2014-08-02T11:35:00,0,20881833,180898
OK,28,61,840,28,2014-08-02T11:40:00,1,20882282,180898
OK,28,61,840,28,2014-08-02T11:45:00,1,20882731,180898
OK,28,61,840,28,2014-08-02T11:50:00,0,20883180,180898
OK,28,61,840,28,2014-08-02T11:55:00,0,20883629,180898
OK,28,61,840,28,2014-08-02T12:00:00,0,20884078,180898
OK,28,61,840,28,2014-08-02T12:05:00,0,20884527,180898
OK,28,61,840,28,2014-08-02T12:10:00,0,20884976,180898
OK,28,61,840,28,2014-08-02T12:15:00,0,20885425,180898
OK,28,61,840,28,2014-08-02T12:20:00,0,20885874,180898
OK,28,61,840,28,2014-08-02T12:25:00,0,20886323,180898
OK,28,61,840,28,2014-08-02T12:30:00,0,20886772,180898
OK,28,61,840,28,2014-08-02T12:35:00,0,20887221,180898
OK,28,61,840,28,2014-08-02T12:40:00,0,20887670,180898
OK,28,61,840,28,2014-08-02T12:45:00,0,20888119,180898
OK,28,61,840,28,2014-08-02T12:50:00,0,20888568,180898
OK,28,61,840,28,2014-08-02T12:55:00,0,20889017,180898
OK,28,61,840,28,2014-08-02T13:00:00,0,20889466,180898
OK,28,61,840,28,2014-08-02T13:05:00,0,20889915,180898
OK,28,61,840,28,2014-08-02T13:10:00,0,20890364,180898
OK,28,61,840,28,2014-08-02T13:15:00,0,20890813,180898
OK,43,39,840,43,2014-08-02T13:20:00,1,20891262,180898
OK,43,39,840,43,2014-08-02T13:25:00,1,20891711,180898
OK,43,39,840,43,2014-08-02T13:30:00,0,20892160,180898
OK,43,39,840,43,2014-08-02T13:35:00,0,20892609,180898
OK,43,39,840,43,2014-08-02T13:40:00,0,20893058,180898
OK,43,39,840,43,2014-08-02T13:45:00,0,20893507,180898
OK,27,63,840,27,2014-08-02T13:50:00,1,20893956,180898
OK,32,53,840,32,2014-08-02T13:55:00,5,20894405,180898
OK,60,28,840,60,2014-08-02T14:00:00,4,20894854,180898
OK,33,51,840,33,2014-08-02T14:05:00,2,20895303,180898
OK,33,51,840,33,2014-08-02T14:10:00,2,20895752,180898
OK,33,51,840,33,2014-08-02T14:15:00,1,20896201,180898
OK,32,53,840,32,2014-08-02T14:20:00,2,20896650,180898
OK,32,53,840,32,2014-08-02T14:25:00,0,20897099,180898
OK,32,53,840,32,2014-08-02T14:30:00,0,20897548,180898
OK,32,53,840,32,2014-08-02T14:35:00,0,20897997,180898
OK,32,53,840,32,2014-08-02T14:40:00,0,20898446,180898
OK,32,53,840,32,2014-08-02T14:45:00,0,20898895,180898
OK,32,53,840,32,2014-08-02T14:50:00,0,20899344,180898
OK,41,41,840,41,2014-08-02T14:55:00,1,20899793,180898
OK,41,41,840,41,2014-08-02T15:00:00,1,20900242,180898
OK,41,41,840,41,2014-08-02T15:05:00,0,20900691,180898
OK,41,41,840,41,2014-08-02T15:10:00,0,20901140,180898
OK,41,41,840,41,2014-08-02T15:15:00,0,20901589,180898
OK,33,51,840,33,2014-08-02T15:20:00,2,20902038,180898
OK,33,51,840,33,2014-08-02T15:25:00,2,20902487,180898
OK,33,51,840,33,2014-08-02T15:30:00,3,20902936,180898
OK,33,51,840,33,2014-08-02T15:35:00,3,20903385,180898
OK,33,51,840,33,2014-08-02T15:40:00,1,20903834,180898
OK,33,51,840,33,2014-08-02T15:45:00,0,20904283,180898
OK,33,51,840,33,2014-08-02T15:50:00,0,20904732,180898
OK,33,51,840,33,2014-08-02T15:55:00,0,20905181,180898
OK,33,51,840,33,2014-08-02T16:00:00,0,20905630,180898
OK,33,51,840,33,2014-08-02T16:05:00,0,20906079,180898
OK,33,51,840,33,2014-08-02T16:10:00,0,20906528,180898
OK,33,51,840,33,2014-08-02T16:15:00,0,20906977,180898
OK,33,51,840,33,2014-08-02T16:20:00,0,20907426,180898
OK,33,51,840,33,2014-08-02T16:25:00,0,20907875,180898
OK,33,51,840,33,2014-08-02T16:30:00,0,20908324,180898
OK,33,51,840,33,2014-08-02T16:35:00,0,20908773,180898
OK,33,51,840,33,2014-08-02T16:40:00,0,20909222,180898
OK,33,51,840,33,2014-08-02T16:45:00,0,20909671,180898
OK,29,59,840,29,2014-08-02T16:50:00,1,20910120,180898
OK,50,34,840,50,2014-08-02T16:55:00,2,20910569,180898
OK,65,26,840,65,2014-08-02T17:00:00,2,20911018,180898
OK,49,34,840,49,2014-08-02T17:05:00,2,20911467,180898
OK,28,61,840,28,2014-08-02T17:10:00,1,20911916,180898
OK,25,68,840,25,2014-08-02T17:15:00,2,20912365,180898
OK,32,53,840,32,2014-08-02T17:20:00,2,20912814,180898
OK,36,47,840,36,2014-08-02T17:25:00,3,20913263,180898
OK,30,57,840,30,2014-08-02T17:30:00,4,20913712,180898
OK,28,61,840,28,2014-08-02T17:35:00,2,20914161,180898
OK,41,41,840,41,2014-08-02T17:40:00,1,20914610,180898
OK,41,41,840,41,2014-08-02T17:45:00,1,20915059,180898
OK,41,41,840,41,2014-08-02T17:50:00,0,20915508,180898
OK,44,38,840,44,2014-08-02T17:55:00,2,20915957,180898
OK,44,38,840,44,2014-08-02T18:00:00,2,20916406,180898
OK,28,61,840,28,2014-08-02T18:05:00,1,20916855,180898
OK,28,61,840,28,2014-08-02T18:10:00,1,20917304,180898
OK,28,61,840,28,2014-08-02T18:15:00,0,20917753,180898
OK,28,61,840,28,2014-08-02T18:20:00,0,20918202,180898
OK,25,68,840,25,2014-08-02T18:25:00,1,20918651,180898
OK,25,68,840,25,2014-08-02T18:30:00,0,20919100,180898
OK,74,23,840,74,2014-08-02T18:35:00,1,20919549,180898
OK,74,23,840,74,2014-08-02T18:40:00,1,20919998,180898
OK,24,71,840,24,2014-08-02T18:45:00,1,20920447,180898
OK,24,71,840,24,2014-08-02T18:50:00,1,20920896,180898
OK,24,71,840,24,2014-08-02T18:55:00,0,20921345,180898
OK,24,71,840,24,2014-08-02T19:00:00,0,20921794,180898
OK,24,71,840,24,2014-08-02T19:05:00,0,20922243,180898
OK,24,71,840,24,2014-08-02T19:10:00,0,20922692,180898
OK,34,50,840,34,2014-08-02T19:15:00,1,20923141,180898
OK,34,50,840,34,2014-08-02T19:20:00,1,20923590,180898
OK,34,50,840,34,2014-08-02T19:25:00,0,20924039,180898
OK,34,50,840,34,2014-08-02T19:30:00,0,20924488,180898
OK,34,50,840,34,2014-08-02T19:35:00,0,20924937,180898
OK,56,30,840,56,2014-08-02T19:40:00,1,20925386,180898
OK,56,30,840,56,2014-08-02T19:45:00,1,20925835,180898
OK,56,30,840,56,2014-08-02T19:50:00,0,20926284,180898
OK,103,16,840,103,2014-08-02T19:55:00,1,20926733,180898
OK,103,16,840,103,2014-08-02T20:00:00,1,20927182,180898
OK,103,16,840,103,2014-08-02T20:05:00,0,20927631,180898
OK,103,16,840,103,2014-08-02T20:10:00,0,20928080,180898
OK,24,71,840,24,2014-08-02T20:15:00,1,20928529,180898
OK,24,71,840,24,2014-08-02T20:20:00,0,20928978,180898
OK,42,40,840,42,2014-08-02T20:25:00,1,20929427,180898
OK,42,40,840,42,2014-08-02T20:30:00,0,20929876,180898
OK,42,40,840,42,2014-08-02T20:35:00,0,20930325,180898
OK,42,40,840,42,2014-08-02T20:40:00,0,20930774,180898
OK,42,40,840,42,2014-08-02T20:45:00,0,20931223,180898
OK,42,40,840,42,2014-08-02T20:50:00,0,20931672,180898
OK,56,30,840,56,2014-08-02T20:55:00,1,20932121,180898
OK,56,30,840,56,2014-08-02T21:00:00,1,20932570,180898
OK,56,30,840,56,2014-08-02T21:05:00,0,20933019,180898
OK,56,30,840,56,2014-08-02T21:10:00,0,20933468,180898
OK,56,30,840,56,2014-08-02T21:15:00,0,20933917,180898
OK,56,30,840,56,2014-08-02T21:20:00,0,20934366,180898
OK,56,30,840,56,2014-08-02T21:25:00,0,20934815,180898
OK,56,30,840,56,2014-08-02T21:30:00,0,20935264,180898
OK,56,30,840,56,2014-08-02T21:35:00,0,20935713,180898
OK,56,30,840,56,2014-08-02T21:40:00,0,20936162,180898
OK,56,30,840,56,2014-08-02T21:45:00,0,20936611,180898
OK,56,30,840,56,2014-08-02T21:50:00,0,20937060,180898
OK,56,30,840,56,2014-08-02T21:55:00,0,20937509,180898
OK,56,30,840,56,2014-08-02T22:00:00,0,20937958,180898
OK,56,30,840,56,2014-08-02T22:05:00,0,20938407,180898
OK,56,30,840,56,2014-08-02T22:10:00,0,20938856,180898
OK,56,30,840,56,2014-08-02T22:15:00,0,20939305,180898
OK,56,30,840,56,2014-08-02T22:20:00,0,20939754,180898
OK,56,30,840,56,2014-08-02T22:25:00,0,20940203,180898
OK,56,30,840,56,2014-08-02T22:30:00,0,20940652,180898
OK,56,30,840,56,2014-08-02T22:35:00,0,20941101,180898
OK,56,30,840,56,2014-08-02T22:40:00,0,20941550,180898
OK,56,30,840,56,2014-08-02T22:45:00,0,20941999,180898
OK,56,30,840,56,2014-08-02T22:50:00,0,20942448,180898
OK,56,30,840,56,2014-08-02T22:55:00,0,20942897,180898
OK,56,30,840,56,2014-08-02T23:00:00,0,20943346,180898
OK,56,30,840,56,2014-08-02T23:10:00,0,20943795,180898
OK,56,30,840,56,2014-08-02T23:15:00,0,20944244,180898
OK,56,30,840,56,2014-08-02T23:20:00,0,20944693,180898
OK,56,30,840,56,2014-08-02T23:25:00,0,20945142,180898
OK,56,30,840,56,2014-08-02T23:30:00,0,20945591,180898
OK,56,30,840,56,2014-08-02T23:35:00,0,20946040,180898
OK,56,30,840,56,2014-08-02T23:40:00,0,20946489,180898
OK,56,30,840,56,2014-08-02T23:45:00,0,20946938,180898
OK,56,30,840,56,2014-08-02T23:50:00,0,20947387,180898
OK,56,30,840,56,2014-08-02T23:55:00,0,20947836,180898
OK,56,30,840,56,2014-08-03T00:00:00,0,20948285,180898
OK,56,30,840,56,2014-08-03T00:05:00,0,20948734,180898
OK,56,30,840,56,2014-08-03T00:10:00,0,20949182,180898
OK,56,30,840,56,2014-08-03T00:15:00,0,20949631,180898
OK,56,30,840,56,2014-08-03T00:20:00,0,20950080,180898
OK,56,30,840,56,2014-08-03T00:25:00,0,20950529,180898
OK,56,30,840,56,2014-08-03T00:30:00,0,20950978,180898
OK,56,30,840,56,2014-08-03T00:35:00,0,20951427,180898
OK,56,30,840,56,2014-08-03T00:40:00,0,20951876,180898
OK,56,30,840,56,2014-08-03T00:45:00,0,20952325,180898
OK,56,30,840,56,2014-08-03T00:50:00,0,20952774,180898
OK,56,30,840,56,2014-08-03T00:55:00,0,20953223,180898
OK,56,30,840,56,2014-08-03T01:00:00,0,20953672,180898
OK,37,46,840,37,2014-08-03T01:05:00,1,20954121,180898
OK,37,46,840,37,2014-08-03T01:10:00,0,20954570,180898
OK,37,46,840,37,2014-08-03T01:15:00,0,20955019,180898
OK,37,46,840,37,2014-08-03T01:20:00,0,20955468,180898
OK,37,46,840,37,2014-08-03T01:25:00,0,20955917,180898
OK,37,46,840,37,2014-08-03T01:30:00,0,20956366,180898
OK,37,46,840,37,2014-08-03T01:35:00,0,20956815,180898
OK,37,46,840,37,2014-08-03T01:40:00,0,20957264,180898
OK,37,46,840,37,2014-08-03T01:45:00,0,20957713,180898
OK,37,46,840,37,2014-08-03T01:50:00,0,20958162,180898